Location: Borgo
(42.3939°N, 9.2791°E)
Time: 21:52:31
(UTC+00:00)

X-37B - Pass Details

Date: 24 January 2021
Orbit: 383 x 391 km, 45.0° (Epoch: 27 February)

Event Time Altitude Azimuth Distance (km) Brightness Sun altitude
Rises 18:25:12 0° 280° (W) 2,274 5.8 -21.8°
Reaches altitude 10° 18:27:18 10° 286° (WNW) 1,420 4.4 -22.2°
Enters shadow 18:29:28 35° 310° (NW) 648 2.0 -22.6°
